Location: East Guldeford
(50.9500°N, 0.7500°E)
Time: 09:52:46
(UTC+00:00)

SOZ - Pass Details

Date: 12 May 2021
Orbit: 306 x 16716 km, 52.0° (Epoch: 16 June)

Event Time Altitude Azimuth Distance (km) Brightness Sun altitude
Rises 20:16:31 0° 245° (WSW) 3,110 9.5 -6.0°
Reaches altitude 10° 20:19:26 10° 241° (WSW) 1,575 8.0 -6.4°
Maximum altitude 20:22:11 58° 161° (SSE) 381 4.3 -6.7°
Drops below altitude 10° 20:24:19 10° 79° (E) 1,214 6.7 -7.0°
Sets 20:26:14 0° 75° (ENE) 2,236 8.1 -7.2°
